Terminal Aerodrome Forecast
Issued by NWS

Home | Current Version | Previous Version | Text Only | Print | Product List | Glossary On
Versions: 1 2 3 4 5 6 7 8 9 10 11 12 13 14 15 16 17 18 19 20 21 22
341
FTUS41 KBGM 280520
TAFELM
TAF
KELM 280520Z 2806/2906 00000KT P6SM SKC
      TEMPO 2809/2812 4SM BR
     FM281400 VRB04KT P6SM FEW100 SCT200
     FM282000 34005KT P6SM SCT050 BKN120 PROB30 2823/2905 5SM -SHRA
      BR OVC040=

USA.gov is the U.S. government's official web portal to all federal, state and local government web resources and services.